sat.trackr.live / text

‹ back to catalog

STARLINK-11683 [DTC]

NORAD 64239 · 2025-119G

PAYLOAD ACTIVE UNKNOWN

§ Identity

Operator
Country
US
Launch date
2025-06-03
Launch site
AFETR
Launch vehicle
Mass (kg)
RCS (m²)

Purposes: comms

External: N2YO · Heavens-Above · Gunter

§ Orbital elements

Epoch: 2026-09-19T21:46:31.493280Z

Period
91.66 min
Inclination
43.0010°
Eccentricity
0.0000572
Mean motion
15.70937925 rev/d
Perigee alt
355.8 km
Apogee alt
356.6 km
Semi-major
6,734.4 km
B*
1.3218e-3
RAAN
118.1170°
Arg perigee
212.9973°
Mean anomaly
147.0859°
Rev number
7,579

§ Raw data

STARLINK-11683 [DTC]1 64239U 25119G   26262.90730895  .00173453  00000+0  13218-2 0  99902 64239  43.0010 118.1170 0000572 212.9973 147.0859 15.70937925 75790

JSON: /api/v1/satellites/64239 · /tle

For live sub-satellite position, see the globe view (requires WebGL).

§ Visibility from observer

Set your observer location to see the next 7 days of passes ≥ 10°. The values pass through the URL so the page stays shareable.

No JS? Fill the form by hand. The geolocation button needs JavaScript.